Phoenix, AZ

4:01 AM MST on January 24, 2018 (GMT -0700)
Phoenix Sky Harbor International

Weather History for KPHX - July, 2013

Change the Weather History Date:

Friday, July 12, 2013

  Actual Average Record
Temperature  
Mean Temperature 94 °F 95 °F  
Max Temperature 101 °F 107 °F 115 °F (2005)
Min Temperature 87 °F 84 °F 69 °F (1944)
Degree Days  
Heating Degree Days 0 0  
Month to date heating degree days 0 0  
Since 1 June heating degree days 0 0  
Since 1 July heating degree days 0 0  
Cooling Degree Days 29 30  
Month to date cooling degree days 396 357  
Year to date cooling degree days 2396 2017  
Since 1 June cooling degree days 1298 1131  
Growing Degree Days 44 (Base 50)    
Moisture  
Dew Point 63 °F    
Average Humidity 40    
Maximum Humidity 50    
Minimum Humidity 29    
Precipitation  
Precipitation 0.00 in 0.03 in 1.02 in (1973)
Month to date precipitation T 0.27  
Year to date precipitation 2.61 3.50  
Snow  
Snow 0.00 in - - ()
Month to date snowfall 0.0  
Year to date snowfall 0.0  
Since 1 July snowfall 0.0  
Snow Depth 0.00 in    
Sea Level Pressure  
Sea Level Pressure 29.78 in    
Wind  
Wind Speed 9 mph (SSW)    
Max Wind Speed 21 mph    
Max Gust Speed 26 mph    
Visibility 10 miles    
Events      
T = Trace of Precipitation, MM = Missing Value Source: NWS Daily Summary

Daily Weather History Graph

Daily Weather History Graph

Search for Another Location

Airport or City:

Trip Planner

Search our weather history database for the weather conditions in past years. The results will help you decide how hot, cold, wet, or windy it might be!

Date:

Astronomy

Jul. 12, 2013 Rise Set
Actual Time 5:27 AM MST 7:39 PM MST
Civil Twilight 4:59 AM MST 8:07 PM MST
Nautical Twilight 4:24 AM MST 8:42 PM MST
Astronomical Twilight 3:47 AM MST 9:19 PM MST
Moon 9:32 AM MST (7/12) 10:08 PM MST (7/12)
Length of Visible Light 15h 08m
Length of Day
14h 11m
Waxing Crescent, 18% of the Moon is Illuminated
Jul 12
Waxing Crescent
Jul 15
First Quarter
Jul 22
Full
Jul 29
Last Quarter
Aug 6
New

Hourly Weather History & Observations

Time (MST) Temp. Heat Index Dew Point Humidity Pressure Visibility Wind Dir Wind Speed Gust Speed Precip Events Conditions
12:51 AM 89.1 °F 89.0 °F 61.0 °F 39% 29.77 in 10.0 mi SW 5.8 mph - N/A   Mostly Cloudy
1:51 AM 90.0 °F 89.1 °F 59.0 °F 35% 29.77 in 10.0 mi West 9.2 mph - N/A   Mostly Cloudy
2:51 AM 89.1 °F 88.2 °F 59.0 °F 36% 29.77 in 10.0 mi West 6.9 mph - N/A   Mostly Cloudy
3:51 AM 89.1 °F 88.8 °F 60.1 °F 38% 29.76 in 10.0 mi West 9.2 mph - N/A   Mostly Cloudy
4:51 AM 87.1 °F 87.0 °F 61.0 °F 41% 29.79 in 10.0 mi West 8.1 mph - N/A   Mostly Cloudy
5:51 AM 88.0 °F 87.9 °F 61.0 °F 40% 29.81 in 10.0 mi West 3.5 mph - N/A   Mostly Cloudy
6:51 AM 89.1 °F 89.0 °F 61.0 °F 39% 29.81 in 10.0 mi NNW 5.8 mph - N/A   Mostly Cloudy
7:51 AM 90.0 °F 90.3 °F 62.1 °F 39% 29.82 in 10.0 mi NW 6.9 mph - N/A   Mostly Cloudy
8:51 AM 91.0 °F 90.9 °F 61.0 °F 36% 29.83 in 10.0 mi WNW 6.9 mph - N/A   Mostly Cloudy
9:51 AM 93.9 °F 94.0 °F 61.0 °F 33% 29.83 in 10.0 mi West 8.1 mph - N/A   Mostly Cloudy
10:51 AM 97.0 °F 97.4 °F 61.0 °F 30% 29.81 in 10.0 mi SSW 8.1 mph - N/A   Mostly Cloudy
11:51 AM 98.1 °F 98.6 °F 61.0 °F 29% 29.80 in 10.0 mi WSW 6.9 mph - N/A   Mostly Cloudy
12:51 PM 99.0 °F 100.5 °F 62.1 °F 30% 29.79 in 10.0 mi West 16.1 mph - N/A   Mostly Cloudy
1:51 PM 96.1 °F 96.4 °F 61.0 °F 31% 29.79 in 10.0 mi West 6.9 mph - N/A   Mostly Cloudy
2:24 PM 91.9 °F 94.1 °F 64.9 °F 41% 29.85 in 5.0 mi East 17.3 mph 21.9 mph N/A   Widespread Dust
2:51 PM 89.1 °F 91.3 °F 66.0 °F 46% 29.77 in 10.0 mi East 12.7 mph - N/A   Mostly Cloudy
3:51 PM 88.0 °F 90.3 °F 66.0 °F 48% 29.77 in 10.0 mi ESE 17.3 mph - N/A   Mostly Cloudy
4:51 PM 93.0 °F 95.0 °F 64.9 °F 39% 29.75 in 10.0 mi SE 11.5 mph 17.3 mph N/A   Mostly Cloudy
5:51 PM 93.0 °F 94.6 °F 64.0 °F 38% 29.74 in 10.0 mi SE 5.8 mph - N/A   Scattered Clouds
6:51 PM 93.0 °F 95.0 °F 64.9 °F 39% 29.74 in 10.0 mi ENE 8.1 mph - N/A   Scattered Clouds
7:51 PM 91.9 °F 94.1 °F 64.9 °F 41% 29.74 in 10.0 mi ESE 8.1 mph - N/A   Scattered Clouds
8:51 PM 91.0 °F 93.0 °F 64.9 °F 42% 29.76 in 10.0 mi East 9.2 mph - N/A   Scattered Clouds
9:51 PM 90.0 °F 91.3 °F 64.0 °F 42% 29.77 in 10.0 mi East 9.2 mph - N/A   Scattered Clouds
10:51 PM 89.1 °F 90.3 °F 64.0 °F 43% 29.78 in 10.0 mi East 9.2 mph - N/A   Mostly Cloudy
11:51 PM 87.1 °F 88.3 °F 64.0 °F 46% 29.78 in 10.0 mi ESE 5.8 mph - N/A   Scattered Clouds